Siemreap, Cambodia

11:10 PM ICT on October 01, 2016 (GMT +0700)
Siem Reap

Weather History for VDSR - August, 2014

Change the Weather History Date:

Sunday, August 24, 2014

  Actual Average Record
Temperature  
Mean Temperature 86 °F -  
Max Temperature 93 °F - - ()
Min Temperature 80 °F - - ()
Cooling Degree Days 22    
Growing Degree Days 36 (Base 50)    
Moisture  
Dew Point 76 °F    
Average Humidity 70    
Maximum Humidity 89    
Minimum Humidity 52    
Precipitation  
Precipitation 0.00 in - - ()
Sea Level Pressure  
Sea Level Pressure 29.74 in    
Wind  
Wind Speed 4 mph ()    
Max Wind Speed 12 mph    
Max Gust Speed -    
Visibility 6.0 miles    
Events      
T = Trace of Precipitation, MM = Missing Value Source: Averaged Metar Reports

Daily Weather History Graph

Daily Weather History Graph

Search for Another Location

Airport or City:

Trip Planner

Search our weather history database for the weather conditions in past years. The results will help you decide how hot, cold, wet, or windy it might be!

Date:

Astronomy

Aug. 24, 2014 Rise Set
Actual Time 5:52 AM ICT 6:21 PM ICT
Civil Twilight 5:31 AM ICT 6:42 PM ICT
Nautical Twilight 5:05 AM ICT 7:08 PM ICT
Astronomical Twilight 4:40 AM ICT 7:33 PM ICT
Moon 4:37 AM ICT (8/24) 5:22 PM ICT (8/24)
Length of Visible Light 13h 11m
Length of Day
12h 28m
Waning Crescent, 2% of the Moon is Illuminated
Aug 24
Waning Crescent
Aug 25
New
Sep 2
First Quarter
Sep 9
Full
Sep 16
Last Quarter

Hourly Weather History & Observations

Time (ICT) Temp. Heat Index Dew Point Humidity Pressure Visibility Wind Dir Wind Speed Gust Speed Precip Events Conditions
12:00 AM 80.6 °F 87.1 °F 77.0 °F 89% 29.80 in 6.2 mi Variable 2.3 mph - N/A   Scattered Clouds
12:30 AM 80.6 °F 87.1 °F 77.0 °F 89% 29.77 in 6.2 mi Calm Calm - N/A   Scattered Clouds
7:00 AM 80.6 °F 87.1 °F 77.0 °F 89% 29.77 in 6.2 mi NNW 3.5 mph - N/A   Scattered Clouds
7:30 AM 80.6 °F 87.1 °F 77.0 °F 89% 29.77 in 6.2 mi WNW 3.5 mph - N/A   Scattered Clouds
8:00 AM 82.4 °F 90.9 °F 77.0 °F 84% 29.77 in 6.2 mi West 3.5 mph - N/A   Scattered Clouds
8:30 AM 84.2 °F 94.1 °F 77.0 °F 79% 29.80 in 6.2 mi Variable 3.5 mph - N/A   Scattered Clouds
9:00 AM 86.0 °F 96.9 °F 77.0 °F 74% 29.80 in 6.2 mi West 5.8 mph - N/A   Scattered Clouds
9:30 AM 87.8 °F 97.6 °F 75.2 °F 66% 29.80 in 6.2 mi West 5.8 mph - N/A   Scattered Clouds
10:00 AM 87.8 °F 97.6 °F 75.2 °F 66% 29.80 in 6.2 mi West 6.9 mph - N/A   Scattered Clouds
10:30 AM 87.8 °F 99.7 °F 77.0 °F 70% 29.80 in 6.2 mi WNW 4.6 mph - N/A   Scattered Clouds
11:00 AM 87.8 °F 99.7 °F 77.0 °F 70% 29.80 in 6.2 mi West 4.6 mph - N/A   Scattered Clouds
11:30 AM 87.8 °F 99.7 °F 77.0 °F 70% 29.77 in 6.2 mi WNW 4.6 mph - N/A   Scattered Clouds
12:00 PM 89.6 °F 102.2 °F 77.0 °F 66% 29.77 in 6.2 mi WNW 6.9 mph - N/A   Scattered Clouds
12:30 PM 89.6 °F 102.2 °F 77.0 °F 66% 29.74 in 6.2 mi WNW 4.6 mph - N/A   Scattered Clouds
1:00 PM 89.6 °F 102.2 °F 77.0 °F 66% 29.74 in 6.2 mi West 4.6 mph - N/A   Scattered Clouds
1:30 PM 89.6 °F 99.8 °F 75.2 °F 62% 29.71 in 6.2 mi Variable 4.6 mph - N/A   Scattered Clouds
2:00 PM 89.6 °F 99.8 °F 75.2 °F 62% 29.71 in 6.2 mi Variable 2.3 mph - N/A   Scattered Clouds
2:30 PM 91.4 °F 102.5 °F 75.2 °F 59% 29.68 in 6.2 mi Variable 3.5 mph - N/A   Scattered Clouds
3:00 PM 91.4 °F 102.5 °F 75.2 °F 59% 29.68 in 6.2 mi Variable 3.5 mph - N/A   Scattered Clouds
3:30 PM 93.2 °F 102.4 °F 73.4 °F 52% 29.65 in 6.2 mi Variable 3.5 mph - N/A   Scattered Clouds
4:00 PM 93.2 °F 102.4 °F 73.4 °F 52% 29.65 in 6.2 mi Variable 2.3 mph - N/A   Scattered Clouds
4:30 PM 91.4 °F 100.1 °F 73.4 °F 55% 29.62 in 6.2 mi North 4.6 mph - N/A   Scattered Clouds
5:00 PM 91.4 °F 100.1 °F 73.4 °F 55% 29.65 in 6.2 mi Variable 2.3 mph - N/A   Scattered Clouds
5:30 PM 91.4 °F 102.5 °F 75.2 °F 59% 29.65 in 6.2 mi Variable 3.5 mph - N/A   Scattered Clouds
6:00 PM 89.6 °F 102.2 °F 77.0 °F 66% 29.65 in 6.2 mi WSW 3.5 mph - N/A   Scattered Clouds
6:30 PM 87.8 °F 99.7 °F 77.0 °F 70% 29.68 in 5.6 mi SW 3.5 mph - N/A   Scattered Clouds
7:00 PM 87.8 °F 99.7 °F 77.0 °F 70% 29.71 in 5.6 mi SW 3.5 mph - N/A   Scattered Clouds
7:30 PM 87.8 °F 99.7 °F 77.0 °F 70% 29.71 in 5.6 mi SW 3.5 mph - N/A   Scattered Clouds
8:00 PM 86.0 °F 96.9 °F 77.0 °F 74% 29.74 in 5.6 mi SW 11.5 mph - N/A   Scattered Clouds
8:30 PM 86.0 °F 96.9 °F 77.0 °F 74% 29.74 in 5.6 mi SW 11.5 mph - N/A   Scattered Clouds
9:00 PM 84.2 °F 94.1 °F 77.0 °F 79% 29.77 in 5.6 mi SW 11.5 mph - N/A   Scattered Clouds
9:30 PM 84.2 °F 94.1 °F 77.0 °F 79% 29.80 in 5.6 mi WSW 5.8 mph - N/A   Scattered Clouds
10:00 PM 84.2 °F 94.1 °F 77.0 °F 79% 29.80 in 5.6 mi WSW 5.8 mph - N/A   Scattered Clouds
10:30 PM 84.2 °F 92.3 °F 75.2 °F 74% 29.80 in 5.6 mi WSW 5.8 mph - N/A   Scattered Clouds
11:00 PM 82.4 °F 89.5 °F 75.2 °F 79% 29.80 in 5.6 mi West 5.8 mph - N/A   Scattered Clouds